User: anonymous   Login
Location: Cincinnati Observatory Center
(39.1389°N, 84.4225°W)
Time: 11:59:46
(UTC-04:00)
Language:

COSMOS 2428 - Orbit

View from above orbital plane
View from above orbital plane
View from above satellite
View from above satellite

Ground track
Ground track

The orbit data is extracted from the following two-line orbital elements,

1 31792U 07029A   16207.54323656 -.00000332  00000-0 -15425-3 0  9990
2 31792  70.9343  17.7841 0008590  35.4705 324.6985 14.12346163467953
Epoch (UTC): 25 July 2016 13:02:15
Eccentricity: 0.0008590
inclination: 70.9343°
perigee height: 845 km
apogee height: 857 km
right ascension of ascending node: 17.7841°
argument of perigee: 35.4705°
revolutions per day: 14.12346163
mean anomaly at epoch: 324.6985°
orbit number at epoch: 46795

The dashed part of the orbit path shows where the satellite is in the earth's shadow,  

DLR